Time,TemperatureF,DewpointF,PressureIn,WindDirection,WindDirectionDegrees,WindSpeedMPH,WindSpeedGustMPH,Humidity,HourlyPrecipIn,Conditions,Clouds,dailyrainin,SolarRadiationWatts/m^2,SoftwareType,DateUTC
2013-07-24 00:01:00,68.9,63.9,29.91,NNE,13,0.0,0.0,84,0.00,,,0.00,0,WeatherCatV1.15B25,2013-07-24 05:01:00,
2013-07-24 00:06:00,68.7,64.0,29.92,NNE,13,0.0,0.0,85,0.00,,,0.00,0,WeatherCatV1.15B25,2013-07-24 05:06:00,
2013-07-24 00:11:00,68.6,63.9,29.92,NNE,13,0.0,0.0,85,0.00,,,0.00,0,WeatherCatV1.15B25,2013-07-24 05:11:00,
2013-07-24 00:16:00,68.6,63.9,29.92,NNE,13,0.0,0.0,85,0.00,,,0.00,0,WeatherCatV1.15B25,2013-07-24 05:16:00,
2013-07-24 00:21:00,68.6,63.9,29.92,NNE,13,0.0,0.0,85,0.00,,,0.00,0,WeatherCatV1.15B25,2013-07-24 05:21:00,
2013-07-24 00:26:00,68.5,63.8,29.93,NNE,13,0.0,0.0,85,0.00,,,0.00,0,WeatherCatV1.15B25,2013-07-24 05:26:00,
2013-07-24 00:31:00,68.4,63.7,29.93,NNE,13,0.0,0.0,85,0.00,,,0.00,0,WeatherCatV1.15B25,2013-07-24 05:31:00,
2013-07-24 00:36:00,68.3,63.6,29.93,NNE,13,0.0,0.0,85,0.00,,,0.00,0,WeatherCatV1.15B25,2013-07-24 05:36:00,
2013-07-24 00:41:00,68.2,63.5,29.93,NNE,13,0.0,0.0,85,0.00,,,0.00,0,WeatherCatV1.15B25,2013-07-24 05:41:00,
2013-07-24 00:46:00,68.1,63.4,29.93,NNE,13,0.0,0.0,85,0.00,,,0.00,0,WeatherCatV1.15B25,2013-07-24 05:46:00,
2013-07-24 00:51:00,68.0,63.3,29.94,NNE,13,0.0,0.0,85,0.00,,,0.00,0,WeatherCatV1.15B25,2013-07-24 05:51:00,
2013-07-24 00:56:00,67.9,63.2,29.94,NNE,13,2.0,3.0,85,0.00,,,0.00,0,WeatherCatV1.15B25,2013-07-24 05:56:00,
2013-07-24 01:01:00,67.8,63.1,29.94,NNE,13,0.0,1.0,85,0.00,,,0.00,0,WeatherCatV1.15B25,2013-07-24 06:01:00,
2013-07-24 01:06:00,67.7,63.4,29.94,NNE,13,0.0,0.0,86,0.00,,,0.00,0,WeatherCatV1.15B25,2013-07-24 06:06:00,
2013-07-24 01:11:00,67.6,63.3,29.95,NNE,13,0.0,0.0,86,0.00,,,0.00,0,WeatherCatV1.15B25,2013-07-24 06:11:00,
2013-07-24 01:16:00,67.4,63.1,29.95,NNE,13,0.0,0.0,86,0.00,,,0.00,0,WeatherCatV1.15B25,2013-07-24 06:16:00,
2013-07-24 01:21:00,67.3,63.0,29.95,NNE,13,0.0,0.0,86,0.00,,,0.00,0,WeatherCatV1.15B25,2013-07-24 06:21:00,
2013-07-24 01:26:00,67.1,62.8,29.95,NNE,13,0.0,0.0,86,0.00,,,0.00,0,WeatherCatV1.15B25,2013-07-24 06:26:00,
2013-07-24 01:31:00,67.0,62.7,29.95,NNE,13,0.0,0.0,86,0.00,,,0.00,0,WeatherCatV1.15B25,2013-07-24 06:31:00,
2013-07-24 01:36:00,66.8,62.5,29.96,NNE,13,0.0,2.0,86,0.00,,,0.00,0,WeatherCatV1.15B25,2013-07-24 06:36:00,
2013-07-24 01:41:00,66.8,62.5,29.96,NNE,13,0.0,0.0,86,0.00,,,0.00,0,WeatherCatV1.15B25,2013-07-24 06:41:00,
2013-07-24 01:46:00,66.6,62.3,29.96,NNE,13,0.0,0.0,86,0.00,,,0.00,0,WeatherCatV1.15B25,2013-07-24 06:46:00,
2013-07-24 01:51:00,66.5,62.2,29.96,NNE,13,0.0,0.0,86,0.00,,,0.00,0,WeatherCatV1.15B25,2013-07-24 06:51:00,
2013-07-24 01:56:00,66.3,62.0,29.96,NNE,13,0.0,0.0,86,0.00,,,0.00,0,WeatherCatV1.15B25,2013-07-24 06:56:00,
2013-07-24 02:01:00,66.2,61.9,29.96,NNE,13,0.0,0.0,86,0.00,,,0.00,0,WeatherCatV1.15B25,2013-07-24 07:01:00,
2013-07-24 02:06:00,66.1,61.8,29.96,NNE,13,0.0,0.0,86,0.00,,,0.00,0,WeatherCatV1.15B25,2013-07-24 07:06:00,
2013-07-24 02:11:00,66.1,61.8,29.96,NNE,13,0.0,0.0,86,0.00,,,0.00,0,WeatherCatV1.15B25,2013-07-24 07:11:00,
2013-07-24 02:16:00,66.0,61.4,29.96,NNE,13,0.0,1.0,85,0.00,,,0.00,0,WeatherCatV1.15B25,2013-07-24 07:16:00,
2013-07-24 02:21:00,66.0,61.4,29.96,NNE,13,0.0,3.0,85,0.00,,,0.00,0,WeatherCatV1.15B25,2013-07-24 07:21:00,
2013-07-24 02:26:00,65.9,61.3,29.96,NNE,13,1.0,1.0,85,0.00,,,0.00,0,WeatherCatV1.15B25,2013-07-24 07:26:00,
2013-07-24 02:31:00,65.8,60.8,29.96,NNE,13,0.0,0.0,84,0.00,,,0.00,0,WeatherCatV1.15B25,2013-07-24 07:31:00,
2013-07-24 02:36:00,65.8,60.8,29.96,NNE,13,0.0,0.0,84,0.00,,,0.00,0,WeatherCatV1.15B25,2013-07-24 07:36:00,
2013-07-24 02:41:00,65.6,60.6,29.96,NNE,13,0.0,0.0,84,0.00,,,0.00,0,WeatherCatV1.15B25,2013-07-24 07:41:00,
2013-07-24 02:46:00,65.5,60.5,29.96,NNE,13,0.0,0.0,84,0.00,,,0.00,0,WeatherCatV1.15B25,2013-07-24 07:46:00,
2013-07-24 02:51:00,65.4,60.4,29.96,NNE,13,0.0,0.0,84,0.00,,,0.00,0,WeatherCatV1.15B25,2013-07-24 07:51:00,
2013-07-24 02:55:00,65.2,60.2,29.96,NNE,13,0.0,0.0,84,0.00,,,0.00,0,WeatherCatV1.15B25,2013-07-24 07:55:00,
2013-07-24 02:56:00,65.2,60.2,29.96,NNE,13,0.0,0.0,84,0.00,,,0.00,0,WeatherCatV1.15B25,2013-07-24 07:56:00,
2013-07-24 03:01:00,65.0,60.4,29.96,NNE,13,0.0,0.0,85,0.00,,,0.00,0,WeatherCatV1.15B25,2013-07-24 08:01:00,
2013-07-24 03:06:00,64.8,60.2,29.96,NNE,13,0.0,0.0,85,0.00,,,0.00,0,WeatherCatV1.15B25,2013-07-24 08:06:00,
2013-07-24 03:11:00,64.7,60.1,29.96,NNE,13,0.0,0.0,85,0.00,,,0.00,0,WeatherCatV1.15B25,2013-07-24 08:11:00,
2013-07-24 03:16:00,64.5,59.9,29.97,NNE,13,0.0,0.0,85,0.00,,,0.00,0,WeatherCatV1.15B25,2013-07-24 08:16:00,
2013-07-24 03:21:00,64.5,59.9,29.96,NNE,13,0.0,0.0,85,0.00,,,0.00,0,WeatherCatV1.15B25,2013-07-24 08:21:00,
2013-07-24 03:26:00,64.5,59.9,29.96,NNE,13,0.0,0.0,85,0.00,,,0.00,0,WeatherCatV1.15B25,2013-07-24 08:26:00,
2013-07-24 03:31:00,64.4,59.8,29.96,NNE,13,0.0,0.0,85,0.00,,,0.00,0,WeatherCatV1.15B25,2013-07-24 08:31:00,
2013-07-24 03:36:00,64.3,59.7,29.96,NNE,13,0.0,0.0,85,0.00,,,0.00,0,WeatherCatV1.15B25,2013-07-24 08:36:00,
2013-07-24 03:41:00,64.1,59.8,29.96,NNE,13,0.0,0.0,86,0.00,,,0.00,0,WeatherCatV1.15B25,2013-07-24 08:41:00,
2013-07-24 03:46:00,64.0,59.7,29.95,NNE,13,0.0,0.0,86,0.00,,,0.00,0,WeatherCatV1.15B25,2013-07-24 08:46:00,
2013-07-24 03:51:00,63.9,59.6,29.95,NNE,13,0.0,0.0,86,0.00,,,0.00,0,WeatherCatV1.15B25,2013-07-24 08:51:00,
2013-07-24 03:56:00,63.8,59.5,29.95,NNE,13,0.0,0.0,86,0.00,,,0.00,0,WeatherCatV1.15B25,2013-07-24 08:56:00,
2013-07-24 04:01:00,63.6,59.3,29.95,NNE,13,0.0,0.0,86,0.00,,,0.00,0,WeatherCatV1.15B25,2013-07-24 09:01:00,
2013-07-24 04:06:00,63.5,59.2,29.96,NNE,13,0.0,0.0,86,0.00,,,0.00,0,WeatherCatV1.15B25,2013-07-24 09:06:00,
2013-07-24 04:11:00,63.5,59.2,29.96,NNE,13,0.0,0.0,86,0.00,,,0.00,0,WeatherCatV1.15B25,2013-07-24 09:11:00,
2013-07-24 04:16:00,63.5,59.6,29.96,NNE,13,0.0,0.0,87,0.00,,,0.00,0,WeatherCatV1.15B25,2013-07-24 09:16:00,
2013-07-24 04:21:00,63.3,59.4,29.95,NNE,13,0.0,0.0,87,0.00,,,0.00,0,WeatherCatV1.15B25,2013-07-24 09:21:00,
2013-07-24 04:26:00,63.2,59.3,29.96,NNE,13,0.0,0.0,87,0.00,,,0.00,0,WeatherCatV1.15B25,2013-07-24 09:26:00,
2013-07-24 04:31:00,63.1,59.2,29.96,NNE,13,0.0,0.0,87,0.00,,,0.00,0,WeatherCatV1.15B25,2013-07-24 09:31:00,
2013-07-24 04:36:00,62.9,59.0,29.95,NNE,13,0.0,0.0,87,0.00,,,0.00,0,WeatherCatV1.15B25,2013-07-24 09:36:00,
2013-07-24 04:41:00,62.7,58.8,29.95,NNE,13,0.0,0.0,87,0.00,,,0.00,0,WeatherCatV1.15B25,2013-07-24 09:41:00,
2013-07-24 04:46:00,62.5,58.6,29.96,NNE,13,0.0,0.0,87,0.00,,,0.00,0,WeatherCatV1.15B25,2013-07-24 09:46:00,
2013-07-24 04:51:00,62.3,58.7,29.96,NNE,13,0.0,0.0,88,0.00,,,0.00,0,WeatherCatV1.15B25,2013-07-24 09:51:00,
2013-07-24 04:56:00,62.1,58.5,29.96,NNE,13,0.0,0.0,88,0.00,,,0.00,0,WeatherCatV1.15B25,2013-07-24 09:56:00,
2013-07-24 05:02:00,62.0,58.4,29.96,NNE,13,0.0,0.0,88,0.00,,,0.00,0,WeatherCatV1.15B25,2013-07-24 10:02:00,
2013-07-24 05:07:00,61.8,58.5,29.96,NNE,13,0.0,0.0,89,0.00,,,0.00,0,WeatherCatV1.15B25,2013-07-24 10:07:00,
2013-07-24 05:12:00,61.6,58.3,29.97,NNE,13,0.0,0.0,89,0.00,,,0.00,0,WeatherCatV1.15B25,2013-07-24 10:12:00,
2013-07-24 05:17:00,61.4,58.1,29.97,NNE,13,0.0,0.0,89,0.00,,,0.00,0,WeatherCatV1.15B25,2013-07-24 10:17:00,
2013-07-24 05:22:00,61.6,58.6,29.98,NNE,13,0.0,0.0,90,0.00,,,0.00,0,WeatherCatV1.15B25,2013-07-24 10:22:00,
2013-07-24 05:27:00,61.5,58.5,29.98,NNE,13,0.0,0.0,90,0.00,,,0.00,0,WeatherCatV1.15B25,2013-07-24 10:27:00,
2013-07-24 05:32:00,61.6,58.6,29.98,NNE,13,0.0,0.0,90,0.00,,,0.00,0,WeatherCatV1.15B25,2013-07-24 10:32:00,
2013-07-24 05:37:00,61.6,58.6,29.98,NNE,13,0.0,0.0,90,0.00,,,0.00,0,WeatherCatV1.15B25,2013-07-24 10:37:00,
2013-07-24 05:42:00,61.6,58.6,29.99,NNE,13,0.0,0.0,90,0.00,,,0.00,0,WeatherCatV1.15B25,2013-07-24 10:42:00,
2013-07-24 05:47:00,61.6,58.9,29.99,NNE,13,0.0,0.0,91,0.00,,,0.00,0,WeatherCatV1.15B25,2013-07-24 10:47:00,
2013-07-24 05:52:00,61.5,58.8,29.99,NNE,13,0.0,0.0,91,0.00,,,0.00,0,WeatherCatV1.15B25,2013-07-24 10:52:00,
2013-07-24 05:57:00,61.4,58.7,29.99,NNE,13,0.0,0.0,91,0.00,,,0.00,0,WeatherCatV1.15B25,2013-07-24 10:57:00,
2013-07-24 06:02:00,61.4,58.7,29.99,NNE,13,0.0,0.0,91,0.00,,,0.00,0,WeatherCatV1.15B25,2013-07-24 11:02:00,
2013-07-24 06:07:00,61.3,58.6,30.00,NNE,13,0.0,0.0,91,0.00,,,0.00,0,WeatherCatV1.15B25,2013-07-24 11:07:00,
2013-07-24 06:12:00,61.3,58.6,30.00,NNE,13,0.0,1.0,91,0.00,,,0.00,0,WeatherCatV1.15B25,2013-07-24 11:12:00,
2013-07-24 06:17:00,61.4,58.7,30.00,NNE,13,0.0,0.0,91,0.00,,,0.00,0,WeatherCatV1.15B25,2013-07-24 11:17:00,
2013-07-24 06:22:00,61.3,58.6,30.00,NNE,13,0.0,0.0,91,0.00,,,0.00,5,WeatherCatV1.15B25,2013-07-24 11:22:00,
2013-07-24 06:27:00,61.3,58.6,30.00,NNE,13,0.0,0.0,91,0.00,,,0.00,9,WeatherCatV1.15B25,2013-07-24 11:27:00,
2013-07-24 06:32:00,61.2,58.5,30.00,NNE,13,0.0,0.0,91,0.00,,,0.00,12,WeatherCatV1.15B25,2013-07-24 11:32:00,
2013-07-24 06:37:00,61.2,58.5,30.00,NNE,13,0.0,0.0,91,0.00,,,0.00,14,WeatherCatV1.15B25,2013-07-24 11:37:00,
2013-07-24 06:42:00,61.2,58.5,30.00,NNE,13,0.0,3.0,91,0.00,,,0.00,19,WeatherCatV1.15B25,2013-07-24 11:42:00,
2013-07-24 06:47:00,61.3,58.6,30.00,NNE,13,0.0,0.0,91,0.00,,,0.00,23,WeatherCatV1.15B25,2013-07-24 11:47:00,
2013-07-24 06:52:00,61.4,58.7,30.00,NNE,13,0.0,3.0,91,0.00,,,0.00,25,WeatherCatV1.15B25,2013-07-24 11:52:00,
2013-07-24 06:57:00,61.4,58.7,30.00,NNE,13,0.0,0.0,91,0.00,,,0.00,26,WeatherCatV1.15B25,2013-07-24 11:57:00,
2013-07-24 07:02:00,61.6,58.9,30.00,NNE,13,3.0,3.0,91,0.00,,,0.00,33,WeatherCatV1.15B25,2013-07-24 12:02:00,
2013-07-24 07:07:00,61.7,59.0,30.01,NNE,13,0.0,0.0,91,0.00,,,0.00,32,WeatherCatV1.15B25,2013-07-24 12:07:00,
2013-07-24 07:12:00,61.9,59.2,30.01,NNE,13,0.0,0.0,91,0.00,,,0.00,33,WeatherCatV1.15B25,2013-07-24 12:12:00,
2013-07-24 07:17:00,62.0,59.3,30.02,NNE,13,0.0,0.0,91,0.00,,,0.00,35,WeatherCatV1.15B25,2013-07-24 12:17:00,
2013-07-24 07:22:00,62.2,59.5,30.02,NNE,13,0.0,0.0,91,0.00,,,0.00,37,WeatherCatV1.15B25,2013-07-24 12:22:00,
2013-07-24 07:27:00,62.2,59.5,30.01,NNE,13,0.0,0.0,91,0.00,,,0.00,40,WeatherCatV1.15B25,2013-07-24 12:27:00,
2013-07-24 07:32:00,62.4,59.4,30.01,NNE,13,0.0,0.0,90,0.00,,,0.00,42,WeatherCatV1.15B25,2013-07-24 12:32:00,
2013-07-24 07:37:00,62.6,59.6,30.01,NNE,13,0.0,0.0,90,0.00,,,0.00,93,WeatherCatV1.15B25,2013-07-24 12:37:00,
2013-07-24 07:42:00,62.8,59.8,30.01,NNE,13,0.0,0.0,90,0.00,,,0.00,160,WeatherCatV1.15B25,2013-07-24 12:42:00,
2013-07-24 07:47:00,63.1,59.8,30.01,NNE,13,0.0,0.0,89,0.00,,,0.00,174,WeatherCatV1.15B25,2013-07-24 12:47:00,
2013-07-24 07:52:00,63.8,60.5,30.01,NNE,13,0.0,0.0,89,0.00,,,0.00,186,WeatherCatV1.15B25,2013-07-24 12:52:00,
2013-07-24 07:57:00,64.4,60.8,30.01,NNE,13,0.0,0.0,88,0.00,,,0.00,202,WeatherCatV1.15B25,2013-07-24 12:57:00,
2013-07-24 08:02:00,65.1,61.1,30.02,NNE,13,0.0,0.0,87,0.00,,,0.00,218,WeatherCatV1.15B25,2013-07-24 13:02:00,
2013-07-24 08:07:00,65.7,61.1,30.01,NNE,13,0.0,0.0,85,0.00,,,0.00,236,WeatherCatV1.15B25,2013-07-24 13:07:00,
2013-07-24 08:12:00,66.2,61.2,30.01,NNE,13,0.0,0.0,84,0.00,,,0.00,260,WeatherCatV1.15B25,2013-07-24 13:12:00,
2013-07-24 08:17:00,66.7,61.4,30.01,NNE,13,0.0,0.0,83,0.00,,,0.00,279,WeatherCatV1.15B25,2013-07-24 13:17:00,
2013-07-24 08:22:00,67.2,61.5,30.01,NNE,13,0.0,0.0,82,0.00,,,0.00,294,WeatherCatV1.15B25,2013-07-24 13:22:00,
2013-07-24 08:27:00,67.8,61.7,30.01,NNE,13,0.0,0.0,81,0.00,,,0.00,313,WeatherCatV1.15B25,2013-07-24 13:27:00,
2013-07-24 08:32:00,68.2,61.8,30.02,NNE,13,0.0,0.0,80,0.00,,,0.00,325,WeatherCatV1.15B25,2013-07-24 13:32:00,
2013-07-24 08:37:00,68.6,62.2,30.02,NNE,13,0.0,0.0,80,0.00,,,0.00,341,WeatherCatV1.15B25,2013-07-24 13:37:00,
2013-07-24 08:42:00,69.0,62.2,30.03,NNE,13,0.0,0.0,79,0.00,,,0.00,359,WeatherCatV1.15B25,2013-07-24 13:42:00,
2013-07-24 08:47:00,69.3,62.1,30.02,NNE,13,0.0,2.0,78,0.00,,,0.00,374,WeatherCatV1.15B25,2013-07-24 13:47:00,
2013-07-24 08:52:00,69.5,62.3,30.02,NNE,13,0.0,0.0,78,0.00,,,0.00,390,WeatherCatV1.15B25,2013-07-24 13:52:00,
2013-07-24 08:57:00,69.9,62.3,30.02,NNE,13,0.0,1.0,77,0.00,,,0.00,406,WeatherCatV1.15B25,2013-07-24 13:57:00,
2013-07-24 09:02:00,70.4,62.8,30.02,NNE,13,0.0,0.0,77,0.00,,,0.00,422,WeatherCatV1.15B25,2013-07-24 14:02:00,
2013-07-24 09:07:00,70.8,63.2,30.03,NNE,13,0.0,0.0,77,0.00,,,0.00,438,WeatherCatV1.15B25,2013-07-24 14:07:00,
2013-07-24 09:12:00,71.3,63.3,30.03,NNE,13,0.0,0.0,76,0.00,,,0.00,454,WeatherCatV1.15B25,2013-07-24 14:12:00,
2013-07-24 09:17:00,72.0,64.0,30.03,NNE,13,0.0,0.0,76,0.00,,,0.00,468,WeatherCatV1.15B25,2013-07-24 14:17:00,
2013-07-24 09:22:00,72.4,64.0,30.02,NNE,13,0.0,0.0,75,0.00,,,0.00,482,WeatherCatV1.15B25,2013-07-24 14:22:00,
2013-07-24 09:27:00,72.8,64.4,30.02,NNE,13,0.0,0.0,75,0.00,,,0.00,501,WeatherCatV1.15B25,2013-07-24 14:27:00,
2013-07-24 09:32:00,73.0,64.2,30.02,NNE,13,0.0,2.0,74,0.00,,,0.00,517,WeatherCatV1.15B25,2013-07-24 14:32:00,
2013-07-24 09:37:00,72.6,63.8,30.02,NNE,13,0.0,2.0,74,0.00,,,0.00,533,WeatherCatV1.15B25,2013-07-24 14:37:00,
2013-07-24 09:42:00,72.2,63.8,30.02,NNE,13,0.0,0.0,75,0.00,,,0.00,550,WeatherCatV1.15B25,2013-07-24 14:42:00,
2013-07-24 09:47:00,72.4,64.8,30.02,NNE,13,0.0,1.0,77,0.00,,,0.00,564,WeatherCatV1.15B25,2013-07-24 14:47:00,
2013-07-24 09:52:00,72.2,63.8,30.02,NNE,13,1.0,5.0,75,0.00,,,0.00,577,WeatherCatV1.15B25,2013-07-24 14:52:00,
2013-07-24 09:57:00,72.8,65.2,30.02,NNE,13,0.0,3.0,77,0.00,,,0.00,589,WeatherCatV1.15B25,2013-07-24 14:57:00,
2013-07-24 10:02:00,72.7,64.3,30.02,NNE,13,0.0,3.0,75,0.00,,,0.00,606,WeatherCatV1.15B25,2013-07-24 15:02:00,
2013-07-24 10:07:00,72.9,64.5,30.02,NNE,13,3.0,4.0,75,0.00,,,0.00,615,WeatherCatV1.15B25,2013-07-24 15:07:00,
2013-07-24 10:12:00,73.0,65.0,30.02,NNE,13,0.0,2.0,76,0.00,,,0.00,638,WeatherCatV1.15B25,2013-07-24 15:12:00,
2013-07-24 10:17:00,73.2,64.8,30.02,NNE,13,0.0,4.0,75,0.00,,,0.00,656,WeatherCatV1.15B25,2013-07-24 15:17:00,
2013-07-24 10:22:00,73.5,65.5,30.02,NNE,13,0.0,2.0,76,0.00,,,0.00,673,WeatherCatV1.15B25,2013-07-24 15:22:00,
2013-07-24 10:27:00,73.7,64.5,30.02,North,355,2.0,3.0,73,0.00,,,0.00,696,WeatherCatV1.15B25,2013-07-24 15:27:00,
2013-07-24 10:32:00,73.8,65.0,30.02,North,355,1.0,2.0,74,0.00,,,0.00,577,WeatherCatV1.15B25,2013-07-24 15:32:00,
2013-07-24 10:37:00,73.5,64.3,30.02,NNW,329,5.0,5.0,73,0.00,,,0.00,772,WeatherCatV1.15B25,2013-07-24 15:37:00,
2013-07-24 10:42:00,74.2,65.0,30.02,NW,321,0.0,2.0,73,0.00,,,0.00,802,WeatherCatV1.15B25,2013-07-24 15:42:00,
2013-07-24 10:47:00,75.0,65.3,30.02,NW,315,5.0,5.0,72,0.00,,,0.00,868,WeatherCatV1.15B25,2013-07-24 15:47:00,
2013-07-24 10:52:00,75.0,65.3,30.02,NW,315,2.0,2.0,72,0.00,,,0.00,220,WeatherCatV1.15B25,2013-07-24 15:52:00,
2013-07-24 10:57:00,74.2,64.2,30.01,NW,313,0.0,4.0,71,0.00,,,0.00,847,WeatherCatV1.15B25,2013-07-24 15:57:00,
2013-07-24 11:02:00,74.4,64.4,30.01,WNW,290,4.0,7.0,71,0.00,,,0.00,786,WeatherCatV1.15B25,2013-07-24 16:02:00,
2013-07-24 11:07:00,74.8,64.3,30.02,WNW,290,1.0,3.0,70,0.00,,,0.00,800,WeatherCatV1.15B25,2013-07-24 16:07:00,
2013-07-24 11:12:00,75.9,65.4,30.02,WNW,290,4.0,4.0,70,0.00,,,0.00,810,WeatherCatV1.15B25,2013-07-24 16:12:00,
2013-07-24 11:17:00,77.2,65.8,30.01,WNW,290,0.0,0.0,68,0.00,,,0.00,853,WeatherCatV1.15B25,2013-07-24 16:17:00,
2013-07-24 11:22:00,77.9,65.6,30.01,WNW,288,1.0,6.0,66,0.00,,,0.00,882,WeatherCatV1.15B25,2013-07-24 16:22:00,
2013-07-24 11:27:00,77.4,64.7,30.01,WNW,288,0.0,1.0,65,0.00,,,0.00,870,WeatherCatV1.15B25,2013-07-24 16:27:00,
2013-07-24 11:32:00,77.6,64.4,30.01,WNW,288,1.0,1.0,64,0.00,,,0.00,889,WeatherCatV1.15B25,2013-07-24 16:32:00,
2013-07-24 11:37:00,78.1,64.5,30.01,WNW,288,0.0,0.0,63,0.00,,,0.00,909,WeatherCatV1.15B25,2013-07-24 16:37:00,
2013-07-24 11:42:00,78.7,65.0,30.02,WNW,288,0.0,2.0,63,0.00,,,0.00,898,WeatherCatV1.15B25,2013-07-24 16:42:00,
2013-07-24 11:47:00,79.0,64.4,30.01,WNW,288,0.0,1.0,61,0.00,,,0.00,889,WeatherCatV1.15B25,2013-07-24 16:47:00,
2013-07-24 11:52:00,79.0,65.3,30.01,WNW,288,1.0,1.0,63,0.00,,,0.00,888,WeatherCatV1.15B25,2013-07-24 16:52:00,
2013-07-24 11:57:00,79.0,65.3,30.01,WNW,288,0.0,0.0,63,0.00,,,0.00,881,WeatherCatV1.15B25,2013-07-24 16:57:00,
2013-07-24 12:02:00,79.4,65.2,30.01,WNW,288,4.0,4.0,62,0.00,,,0.00,886,WeatherCatV1.15B25,2013-07-24 17:02:00,
2013-07-24 12:07:00,79.2,63.6,30.01,WNW,288,0.0,2.0,59,0.00,,,0.00,900,WeatherCatV1.15B25,2013-07-24 17:07:00,
2013-07-24 12:12:00,79.1,63.5,30.01,WNW,288,0.0,0.0,59,0.00,,,0.00,905,WeatherCatV1.15B25,2013-07-24 17:12:00,
2013-07-24 12:17:00,79.8,64.7,30.01,WNW,288,0.0,0.0,60,0.00,,,0.00,911,WeatherCatV1.15B25,2013-07-24 17:17:00,
2013-07-24 12:22:00,80.5,64.8,30.01,WNW,288,0.0,1.0,59,0.00,,,0.00,911,WeatherCatV1.15B25,2013-07-24 17:22:00,
2013-07-24 12:27:00,80.7,65.0,30.01,WNW,288,4.0,4.0,59,0.00,,,0.00,912,WeatherCatV1.15B25,2013-07-24 17:27:00,
2013-07-24 12:32:00,80.2,65.5,30.01,WNW,288,0.0,0.0,61,0.00,,,0.00,909,WeatherCatV1.15B25,2013-07-24 17:32:00,
2013-07-24 12:37:00,80.1,64.0,30.00,WNW,288,0.0,3.0,58,0.00,,,0.00,921,WeatherCatV1.15B25,2013-07-24 17:37:00,
2013-07-24 12:42:00,80.2,65.0,30.00,WNW,289,3.0,4.0,60,0.00,,,0.00,926,WeatherCatV1.15B25,2013-07-24 17:42:00,
2013-07-24 12:47:00,80.0,63.9,30.01,WNW,290,0.0,3.0,58,0.00,,,0.00,930,WeatherCatV1.15B25,2013-07-24 17:47:00,
2013-07-24 12:52:00,79.8,64.2,30.00,WNW,290,0.0,3.0,59,0.00,,,0.00,937,WeatherCatV1.15B25,2013-07-24 17:52:00,
2013-07-24 12:57:00,79.8,64.2,30.00,WNW,290,0.0,0.0,59,0.00,,,0.00,940,WeatherCatV1.15B25,2013-07-24 17:57:00,
2013-07-24 13:02:00,80.5,65.8,30.00,WNW,290,0.0,0.0,61,0.00,,,0.00,935,WeatherCatV1.15B25,2013-07-24 18:02:00,
2013-07-24 13:07:00,80.9,64.7,30.00,WNW,290,0.0,1.0,58,0.00,,,0.00,935,WeatherCatV1.15B25,2013-07-24 18:07:00,
2013-07-24 13:12:00,80.7,65.0,30.00,WNW,290,0.0,2.0,59,0.00,,,0.00,951,WeatherCatV1.15B25,2013-07-24 18:12:00,
2013-07-24 13:17:00,80.7,65.0,30.00,WNW,284,2.0,6.0,59,0.00,,,0.00,960,WeatherCatV1.15B25,2013-07-24 18:17:00,
2013-07-24 13:22:00,81.2,64.5,30.00,West,281,0.0,3.0,57,0.00,,,0.00,951,WeatherCatV1.15B25,2013-07-24 18:22:00,
2013-07-24 13:27:00,81.4,64.2,29.99,West,281,2.0,5.0,56,0.00,,,0.00,960,WeatherCatV1.15B25,2013-07-24 18:27:00,
2013-07-24 13:32:00,81.1,63.9,29.99,West,281,0.0,5.0,56,0.00,,,0.00,956,WeatherCatV1.15B25,2013-07-24 18:32:00,
2013-07-24 13:37:00,81.3,64.1,29.99,West,281,0.0,3.0,56,0.00,,,0.00,953,WeatherCatV1.15B25,2013-07-24 18:37:00,
2013-07-24 13:42:00,81.5,64.3,29.98,West,271,3.0,5.0,56,0.00,,,0.00,958,WeatherCatV1.15B25,2013-07-24 18:42:00,
2013-07-24 13:47:00,81.8,65.6,29.98,West,269,3.0,4.0,58,0.00,,,0.00,965,WeatherCatV1.15B25,2013-07-24 18:47:00,
2013-07-24 13:52:00,82.1,64.3,29.98,West,264,5.0,5.0,55,0.00,,,0.00,956,WeatherCatV1.15B25,2013-07-24 18:52:00,
2013-07-24 13:57:00,81.9,64.1,29.98,WSW,240,3.0,7.0,55,0.00,,,0.00,960,WeatherCatV1.15B25,2013-07-24 18:57:00,
2013-07-24 14:02:00,81.9,64.1,29.98,WSW,240,3.0,5.0,55,0.00,,,0.00,958,WeatherCatV1.15B25,2013-07-24 19:02:00,
2013-07-24 14:07:00,82.0,64.2,29.98,WSW,240,0.0,3.0,55,0.00,,,0.00,962,WeatherCatV1.15B25,2013-07-24 19:07:00,
2013-07-24 14:12:00,82.4,64.1,29.98,WSW,239,1.0,4.0,54,0.00,,,0.00,953,WeatherCatV1.15B25,2013-07-24 19:12:00,
2013-07-24 14:17:00,82.2,63.9,29.98,WSW,238,0.0,4.0,54,0.00,,,0.00,967,WeatherCatV1.15B25,2013-07-24 19:17:00,
2013-07-24 14:22:00,82.5,64.7,29.98,WSW,239,0.0,4.0,55,0.00,,,0.00,953,WeatherCatV1.15B25,2013-07-24 19:22:00,
2013-07-24 14:27:00,83.2,65.3,29.98,WSW,239,0.0,0.0,55,0.00,,,0.00,951,WeatherCatV1.15B25,2013-07-24 19:27:00,
2013-07-24 14:32:00,84.7,66.7,29.98,WSW,238,3.0,3.0,55,0.00,,,0.00,954,WeatherCatV1.15B25,2013-07-24 19:32:00,
2013-07-24 14:37:00,84.6,66.1,29.98,WSW,239,2.0,6.0,54,0.00,,,0.00,960,WeatherCatV1.15B25,2013-07-24 19:37:00,
2013-07-24 14:42:00,84.4,65.4,29.98,WSW,239,1.0,5.0,53,0.00,,,0.00,926,WeatherCatV1.15B25,2013-07-24 19:42:00,
2013-07-24 14:47:00,83.9,66.0,29.98,WSW,238,4.0,4.0,55,0.00,,,0.00,939,WeatherCatV1.15B25,2013-07-24 19:47:00,
2013-07-24 14:52:00,83.6,64.1,29.97,WSW,239,0.0,2.0,52,0.00,,,0.00,921,WeatherCatV1.15B25,2013-07-24 19:52:00,
2013-07-24 14:57:00,83.1,65.7,29.97,SW,230,0.0,1.0,56,0.00,,,0.00,925,WeatherCatV1.15B25,2013-07-24 19:57:00,
2013-07-24 15:02:00,83.4,64.4,29.97,SW,225,0.0,3.0,53,0.00,,,0.00,921,WeatherCatV1.15B25,2013-07-24 20:02:00,
2013-07-24 15:07:00,83.6,65.2,29.97,SW,225,0.0,2.0,54,0.00,,,0.00,865,WeatherCatV1.15B25,2013-07-24 20:07:00,
2013-07-24 15:12:00,83.4,64.4,29.97,SW,225,0.0,2.0,53,0.00,,,0.00,896,WeatherCatV1.15B25,2013-07-24 20:12:00,
2013-07-24 15:17:00,83.7,65.3,29.96,SW,225,0.0,0.0,54,0.00,,,0.00,886,WeatherCatV1.15B25,2013-07-24 20:17:00,
2013-07-24 15:22:00,84.8,65.2,29.96,SW,225,1.0,1.0,52,0.00,,,0.00,768,WeatherCatV1.15B25,2013-07-24 20:22:00,
2013-07-24 15:27:00,85.4,64.6,29.96,SW,225,0.0,4.0,50,0.00,,,0.00,884,WeatherCatV1.15B25,2013-07-24 20:27:00,
2013-07-24 15:32:00,85.2,65.0,29.96,SW,225,0.0,0.0,51,0.00,,,0.00,861,WeatherCatV1.15B25,2013-07-24 20:32:00,
2013-07-24 15:37:00,85.0,64.2,29.96,SW,225,4.0,6.0,50,0.00,,,0.00,856,WeatherCatV1.15B25,2013-07-24 20:37:00,
2013-07-24 15:42:00,84.5,64.4,29.96,SW,225,0.0,2.0,51,0.00,,,0.00,847,WeatherCatV1.15B25,2013-07-24 20:42:00,
2013-07-24 15:47:00,84.7,62.8,29.96,SW,225,0.0,3.0,48,0.00,,,0.00,835,WeatherCatV1.15B25,2013-07-24 20:47:00,
2013-07-24 15:52:00,85.0,65.4,29.95,SW,225,0.0,0.0,52,0.00,,,0.00,826,WeatherCatV1.15B25,2013-07-24 20:52:00,
2013-07-24 15:57:00,85.1,63.8,29.95,SW,225,0.0,0.0,49,0.00,,,0.00,817,WeatherCatV1.15B25,2013-07-24 20:57:00,
2013-07-24 16:02:00,84.2,62.9,29.95,SW,225,0.0,1.0,49,0.00,,,0.00,814,WeatherCatV1.15B25,2013-07-24 21:02:00,
2013-07-24 16:07:00,84.7,62.8,29.94,SW,225,1.0,2.0,48,0.00,,,0.00,795,WeatherCatV1.15B25,2013-07-24 21:07:00,
2013-07-24 16:12:00,84.1,62.8,29.94,SW,225,0.0,2.0,49,0.00,,,0.00,788,WeatherCatV1.15B25,2013-07-24 21:12:00,
2013-07-24 16:17:00,84.2,63.5,29.94,SW,225,0.0,0.0,50,0.00,,,0.00,751,WeatherCatV1.15B25,2013-07-24 21:17:00,
2013-07-24 16:22:00,85.3,64.5,29.94,SW,225,2.0,2.0,50,0.00,,,0.00,740,WeatherCatV1.15B25,2013-07-24 21:22:00,
2013-07-24 16:27:00,85.2,64.4,29.94,SW,225,0.0,1.0,50,0.00,,,0.00,758,WeatherCatV1.15B25,2013-07-24 21:27:00,
2013-07-24 16:32:00,85.6,64.2,29.94,SW,225,0.0,1.0,49,0.00,,,0.00,751,WeatherCatV1.15B25,2013-07-24 21:32:00,
2013-07-24 16:37:00,85.2,64.4,29.93,SW,221,0.0,1.0,50,0.00,,,0.00,689,WeatherCatV1.15B25,2013-07-24 21:37:00,
2013-07-24 16:42:00,85.5,63.5,29.93,SW,221,0.0,1.0,48,0.00,,,0.00,626,WeatherCatV1.15B25,2013-07-24 21:42:00,
2013-07-24 16:47:00,85.7,63.7,29.93,SW,221,0.0,4.0,48,0.00,,,0.00,596,WeatherCatV1.15B25,2013-07-24 21:47:00,
2013-07-24 16:52:00,85.4,65.2,29.93,SW,221,1.0,1.0,51,0.00,,,0.00,374,WeatherCatV1.15B25,2013-07-24 21:52:00,
2013-07-24 16:57:00,84.9,63.6,29.93,SW,221,0.0,1.0,49,0.00,,,0.00,359,WeatherCatV1.15B25,2013-07-24 21:57:00,
2013-07-24 17:02:00,84.3,63.6,29.93,SW,221,1.0,4.0,50,0.00,,,0.00,406,WeatherCatV1.15B25,2013-07-24 22:02:00,
2013-07-24 17:07:00,84.1,64.0,29.93,SW,221,0.0,2.0,51,0.00,,,0.00,485,WeatherCatV1.15B25,2013-07-24 22:07:00,
2013-07-24 17:12:00,84.3,63.6,29.93,SW,221,0.0,2.0,50,0.00,,,0.00,494,WeatherCatV1.15B25,2013-07-24 22:12:00,
2013-07-24 17:17:00,84.3,63.0,29.93,SW,221,0.0,0.0,49,0.00,,,0.00,473,WeatherCatV1.15B25,2013-07-24 22:17:00,
2013-07-24 17:22:00,84.7,64.5,29.92,SW,221,1.0,2.0,51,0.00,,,0.00,475,WeatherCatV1.15B25,2013-07-24 22:22:00,
2013-07-24 17:27:00,84.7,62.2,29.92,SW,221,0.0,1.0,47,0.00,,,0.00,429,WeatherCatV1.15B25,2013-07-24 22:27:00,
2013-07-24 17:32:00,84.5,63.2,29.92,SW,221,0.0,1.0,49,0.00,,,0.00,410,WeatherCatV1.15B25,2013-07-24 22:32:00,
2013-07-24 17:37:00,84.4,65.9,29.92,SW,221,0.0,1.0,54,0.00,,,0.00,408,WeatherCatV1.15B25,2013-07-24 22:37:00,
2013-07-24 17:42:00,83.8,67.4,29.92,South,180,6.0,8.0,58,0.00,,,0.00,367,WeatherCatV1.15B25,2013-07-24 22:42:00,
2013-07-24 17:47:00,82.6,66.8,29.92,SE,138,2.0,6.0,59,0.00,,,0.00,338,WeatherCatV1.15B25,2013-07-24 22:47:00,
2013-07-24 17:52:00,82.3,67.5,29.92,SE,139,6.0,6.0,61,0.00,,,0.00,302,WeatherCatV1.15B25,2013-07-24 22:52:00,
2013-07-24 17:57:00,82.0,67.7,29.92,SE,138,3.0,6.0,62,0.00,,,0.00,281,WeatherCatV1.15B25,2013-07-24 22:57:00,
2013-07-24 18:02:00,81.8,67.5,29.92,SE,138,0.0,2.0,62,0.00,,,0.00,294,WeatherCatV1.15B25,2013-07-24 23:02:00,
2013-07-24 18:07:00,81.7,67.9,29.91,SE,138,0.0,0.0,63,0.00,,,0.00,288,WeatherCatV1.15B25,2013-07-24 23:07:00,
2013-07-24 18:12:00,81.8,67.9,29.91,SE,138,1.0,5.0,63,0.00,,,0.00,274,WeatherCatV1.15B25,2013-07-24 23:12:00,
2013-07-24 18:17:00,81.6,67.3,29.91,SE,139,4.0,4.0,62,0.00,,,0.00,264,WeatherCatV1.15B25,2013-07-24 23:17:00,
2013-07-24 18:22:00,81.5,67.7,29.92,SE,140,0.0,4.0,63,0.00,,,0.00,251,WeatherCatV1.15B25,2013-07-24 23:22:00,
2013-07-24 18:27:00,81.4,67.1,29.92,SE,133,1.0,9.0,62,0.00,,,0.00,239,WeatherCatV1.15B25,2013-07-24 23:27:00,
2013-07-24 18:32:00,81.2,67.4,29.92,SE,133,2.0,7.0,63,0.00,,,0.00,241,WeatherCatV1.15B25,2013-07-24 23:32:00,
2013-07-24 18:37:00,81.2,67.8,29.92,SE,133,0.0,1.0,64,0.00,,,0.00,241,WeatherCatV1.15B25,2013-07-24 23:37:00,
2013-07-24 18:42:00,81.1,67.7,29.92,SE,136,3.0,7.0,64,0.00,,,0.00,225,WeatherCatV1.15B25,2013-07-24 23:42:00,
2013-07-24 18:47:00,81.0,67.6,29.91,SE,136,3.0,7.0,64,0.00,,,0.00,195,WeatherCatV1.15B25,2013-07-24 23:47:00,
2013-07-24 18:52:00,80.8,67.9,29.91,SE,138,2.0,3.0,65,0.00,,,0.00,174,WeatherCatV1.15B25,2013-07-24 23:52:00,
2013-07-24 18:57:00,80.7,67.8,29.91,SE,138,1.0,3.0,65,0.00,,,0.00,153,WeatherCatV1.15B25,2013-07-24 23:57:00,
2013-07-24 19:02:00,80.5,67.2,29.92,SE,138,4.0,7.0,64,0.00,,,0.00,135,WeatherCatV1.15B25,2013-07-25 00:02:00,
2013-07-24 19:07:00,80.2,67.3,29.92,SE,138,0.0,3.0,65,0.00,,,0.00,116,WeatherCatV1.15B25,2013-07-25 00:07:00,
2013-07-24 19:12:00,80.0,67.2,29.92,SE,138,2.0,6.0,65,0.00,,,0.00,90,WeatherCatV1.15B25,2013-07-25 00:12:00,
2013-07-24 19:17:00,79.8,67.0,29.92,SE,138,0.0,3.0,65,0.00,,,0.00,69,WeatherCatV1.15B25,2013-07-25 00:17:00,
2013-07-24 19:22:00,79.5,67.1,29.92,SE,138,1.0,3.0,66,0.00,,,0.00,39,WeatherCatV1.15B25,2013-07-25 00:22:00,
2013-07-24 19:27:00,79.2,67.3,29.93,SE,138,0.0,4.0,67,0.00,,,0.00,23,WeatherCatV1.15B25,2013-07-25 00:27:00,
2013-07-24 19:32:00,79.0,67.1,29.93,SE,138,0.0,0.0,67,0.00,,,0.00,14,WeatherCatV1.15B25,2013-07-25 00:32:00,
2013-07-24 19:37:00,78.9,67.0,29.94,SE,138,0.0,0.0,67,0.00,,,0.00,12,WeatherCatV1.15B25,2013-07-25 00:37:00,
2013-07-24 19:42:00,78.7,67.7,29.95,SE,138,0.0,0.0,69,0.00,,,0.00,16,WeatherCatV1.15B25,2013-07-25 00:42:00,
2013-07-24 19:47:00,78.7,68.1,29.94,SE,138,0.0,0.0,70,0.00,,,0.00,26,WeatherCatV1.15B25,2013-07-25 00:47:00,
2013-07-24 19:52:00,78.2,68.0,29.92,SE,138,0.0,0.0,71,0.00,,,0.00,40,WeatherCatV1.15B25,2013-07-25 00:52:00,
2013-07-24 19:57:00,77.5,68.5,29.91,SE,138,2.0,3.0,74,0.00,,,0.00,46,WeatherCatV1.15B25,2013-07-25 00:57:00,
2013-07-24 20:02:00,76.9,68.4,29.91,SE,138,0.0,0.0,75,0.00,,,0.00,42,WeatherCatV1.15B25,2013-07-25 01:02:00,
2013-07-24 20:07:00,76.6,68.5,29.91,SE,138,0.0,0.0,76,0.00,,,0.00,40,WeatherCatV1.15B25,2013-07-25 01:07:00,
2013-07-24 20:12:00,76.5,68.7,29.90,SE,138,2.0,2.0,77,0.00,,,0.00,35,WeatherCatV1.15B25,2013-07-25 01:12:00,
2013-07-24 20:17:00,76.3,68.5,29.89,SE,138,0.0,3.0,77,0.00,,,0.00,32,WeatherCatV1.15B25,2013-07-25 01:17:00,
2013-07-24 20:22:00,76.1,68.3,29.89,SE,138,0.0,0.0,77,0.00,,,0.00,25,WeatherCatV1.15B25,2013-07-25 01:22:00,
2013-07-24 20:27:00,76.0,68.3,29.89,SE,138,0.0,1.0,77,0.00,,,0.00,16,WeatherCatV1.15B25,2013-07-25 01:27:00,
2013-07-24 20:32:00,75.9,68.2,29.89,SE,138,0.0,0.0,77,0.00,,,0.00,11,WeatherCatV1.15B25,2013-07-25 01:32:00,
2013-07-24 20:37:00,75.7,68.3,29.89,SE,138,2.0,2.0,78,0.00,,,0.00,11,WeatherCatV1.15B25,2013-07-25 01:37:00,
2013-07-24 20:42:00,75.5,68.1,29.89,SE,138,0.0,1.0,78,0.00,,,0.00,11,WeatherCatV1.15B25,2013-07-25 01:42:00,
2013-07-24 20:47:00,75.4,68.0,29.89,SE,138,0.0,2.0,78,0.00,,,0.00,7,WeatherCatV1.15B25,2013-07-25 01:47:00,
2013-07-24 20:52:00,75.2,67.5,29.89,SE,138,0.0,0.0,77,0.00,,,0.00,0,WeatherCatV1.15B25,2013-07-25 01:52:00,
2013-07-24 20:57:00,75.2,67.5,29.90,SE,138,0.0,0.0,77,0.00,,,0.00,0,WeatherCatV1.15B25,2013-07-25 01:57:00,
2013-07-24 21:02:00,75.1,67.4,29.92,SE,138,0.0,0.0,77,0.00,,,0.00,0,WeatherCatV1.15B25,2013-07-25 02:02:00,
2013-07-24 21:07:00,75.0,67.3,29.91,SE,138,0.0,0.0,77,0.00,,,0.00,0,WeatherCatV1.15B25,2013-07-25 02:07:00,
2013-07-24 21:12:00,75.0,67.3,29.91,SE,138,0.0,1.0,77,0.00,,,0.00,0,WeatherCatV1.15B25,2013-07-25 02:12:00,
2013-07-24 21:17:00,74.8,67.1,29.91,SE,138,0.0,0.0,77,0.00,,,0.00,0,WeatherCatV1.15B25,2013-07-25 02:17:00,
2013-07-24 21:22:00,74.6,67.3,29.90,SE,138,0.0,0.0,78,0.00,,,0.00,0,WeatherCatV1.15B25,2013-07-25 02:22:00,
2013-07-24 21:27:00,74.4,67.1,29.91,SE,138,2.0,2.0,78,0.00,,,0.00,0,WeatherCatV1.15B25,2013-07-25 02:27:00,
2013-07-24 21:32:00,74.2,66.9,29.91,SE,138,1.0,5.0,78,0.00,,,0.00,0,WeatherCatV1.15B25,2013-07-25 02:32:00,
2013-07-24 21:37:00,74.2,66.9,29.92,SE,138,1.0,1.0,78,0.00,,,0.00,0,WeatherCatV1.15B25,2013-07-25 02:37:00,
2013-07-24 21:42:00,74.1,67.2,29.92,SE,138,1.0,2.0,79,0.00,,,0.00,0,WeatherCatV1.15B25,2013-07-25 02:42:00,
2013-07-24 21:47:00,73.9,67.0,29.92,SE,138,0.0,0.0,79,0.00,,,0.00,0,WeatherCatV1.15B25,2013-07-25 02:47:00,
2013-07-24 21:52:00,73.8,66.9,29.92,SE,138,0.0,0.0,79,0.00,,,0.00,0,WeatherCatV1.15B25,2013-07-25 02:52:00,
2013-07-24 21:57:00,73.6,67.0,29.93,SE,138,0.0,1.0,80,0.00,,,0.00,0,WeatherCatV1.15B25,2013-07-25 02:57:00,
2013-07-24 22:02:00,73.4,66.8,29.93,SE,138,0.0,0.0,80,0.00,,,0.00,0,WeatherCatV1.15B25,2013-07-25 03:02:00,
2013-07-24 22:05:00,73.4,66.8,29.93,SE,138,0.0,2.0,80,0.00,,,0.00,0,WeatherCatV1.15B25,2013-07-25 03:05:00,
2013-07-24 22:06:00,73.3,66.7,29.93,SE,138,0.0,2.0,80,0.00,,,0.00,0,WeatherCatV1.15B25,2013-07-25 03:06:00,
2013-07-24 22:07:00,73.3,66.7,29.93,SE,138,1.0,2.0,80,0.00,,,0.00,0,WeatherCatV1.15B25,2013-07-25 03:07:00,
2013-07-24 22:12:00,73.1,66.9,29.94,SE,138,0.0,2.0,81,0.00,,,0.00,0,WeatherCatV1.15B25,2013-07-25 03:12:00,
2013-07-24 22:17:00,73.0,66.8,29.94,SE,138,0.0,4.0,81,0.00,,,0.00,0,WeatherCatV1.15B25,2013-07-25 03:17:00,
2013-07-24 22:21:00,73.0,66.8,29.94,SE,138,2.0,3.0,81,0.00,,,0.00,0,WeatherCatV1.15B25,2013-07-25 03:21:00,
2013-07-24 22:26:00,73.0,66.8,29.94,SE,138,0.0,2.0,81,0.00,,,0.00,0,WeatherCatV1.15B25,2013-07-25 03:26:00,
2013-07-24 22:32:00,72.9,67.1,29.94,SE,138,0.0,6.0,82,0.00,,,0.00,0,WeatherCatV1.15B25,2013-07-25 03:32:00,
2013-07-24 22:37:00,72.8,67.0,29.94,SE,144,1.0,4.0,82,0.00,,,0.00,0,WeatherCatV1.15B25,2013-07-25 03:37:00,
2013-07-24 22:42:00,72.7,66.9,29.94,SE,144,0.0,3.0,82,0.00,,,0.00,0,WeatherCatV1.15B25,2013-07-25 03:42:00,
2013-07-24 22:47:00,72.6,66.8,29.94,SE,144,0.0,4.0,82,0.00,,,0.00,0,WeatherCatV1.15B25,2013-07-25 03:47:00,
2013-07-24 22:52:00,72.6,66.8,29.94,SE,144,0.0,1.0,82,0.00,,,0.00,0,WeatherCatV1.15B25,2013-07-25 03:52:00,
2013-07-24 22:57:00,72.4,66.6,29.94,SE,144,0.0,0.0,82,0.00,,,0.00,0,WeatherCatV1.15B25,2013-07-25 03:57:00,
2013-07-24 23:01:00,72.4,66.6,29.93,SE,144,0.0,5.0,82,0.00,,,0.00,0,WeatherCatV1.15B25,2013-07-25 04:01:00,
2013-07-24 23:06:00,72.4,66.6,29.93,SE,144,0.0,4.0,82,0.00,,,0.00,0,WeatherCatV1.15B25,2013-07-25 04:06:00,
2013-07-24 23:11:00,72.2,66.4,29.93,SE,144,0.0,4.0,82,0.00,,,0.00,0,WeatherCatV1.15B25,2013-07-25 04:11:00,
2013-07-24 23:16:00,72.2,66.4,29.92,SE,144,1.0,4.0,82,0.00,,,0.00,0,WeatherCatV1.15B25,2013-07-25 04:16:00,
2013-07-24 23:21:00,72.1,66.3,29.92,SE,144,0.0,4.0,82,0.00,,,0.00,0,WeatherCatV1.15B25,2013-07-25 04:21:00,
2013-07-24 23:26:00,72.1,66.3,29.92,SE,144,0.0,1.0,82,0.00,,,0.00,0,WeatherCatV1.15B25,2013-07-25 04:26:00,
2013-07-24 23:31:00,72.1,65.9,29.93,SE,144,0.0,1.0,81,0.00,,,0.00,0,WeatherCatV1.15B25,2013-07-25 04:31:00,
2013-07-24 23:36:00,72.1,65.9,29.93,SE,144,2.0,3.0,81,0.00,,,0.00,0,WeatherCatV1.15B25,2013-07-25 04:36:00,
2013-07-24 23:41:00,72.0,65.8,29.93,SE,144,0.0,1.0,81,0.00,,,0.00,0,WeatherCatV1.15B25,2013-07-25 04:41:00,
2013-07-24 23:46:00,72.0,65.5,29.93,SE,144,5.0,5.0,80,0.00,,,0.00,0,WeatherCatV1.15B25,2013-07-25 04:46:00,
2013-07-24 23:51:00,72.0,65.5,29.93,SE,144,0.0,5.0,80,0.00,,,0.00,0,WeatherCatV1.15B25,2013-07-25 04:51:00,
2013-07-24 23:56:00,72.0,65.5,29.93,SE,144,0.0,1.0,80,0.00,,,0.00,0,WeatherCatV1.15B25,2013-07-25 04:56:00,